FW5955 Weather Reports


Display with metric or nautical units.
time (UTC)temp
F
wind
direction
speed
MPH
gust
MPH
rain 1hr
in
rain 24hr
in
rain mn
in
humidity
%
barometer
mb
20260831053033 63 259 0.0 3.0 0.01 0.05 0.04 92 1010.6
20260831051528 63 258 1.0 4.0 0.01 0.05 0.04 92 1010.8
20260831050039 63 247 2.0 9.0 0.02 0.04 0.03 92 1010.9
20260831044525 64 162 1.0 8.0 0.03 0.04 0.03 92 1011.0
20260831043027 64 285 2.0 8.0 0.03 0.04 0.03 92 1011.0
20260831041527 64 305 2.0 8.0 0.03 0.04 0.03 92 1010.8
20260831040040 65 255 3.0 11.0 0.02 0.02 0.02 91 1011.0
20260831034529 65 143 1.0 10.0 0.00 0.01 0.00 91 1011.0
20260831033020 65 245 7.0 14.0 0.00 0.01 0.00 91 1010.8
20260831031515 65 259 4.0 13.0 0.00 0.01 0.00 91 1010.7
20260831030024 65 264 8.0 15.0 0.00 0.01 0.00 91 1011.0
20260831024511 65 264 5.0 10.0 0.00 0.01 0.01 92 1011.2
20260831023009 65 252 7.0 13.0 0.00 0.01 0.01 91 1011.4
20260831021507 65 236 7.0 13.0 0.00 0.01 0.01 91 1011.7
20260831020006 65 242 6.0 11.0 0.01 0.01 0.01 91 1012.0
20260831014505 65 284 8.0 13.0 0.01 0.01 0.01 91 1012.1
20260831013003 65 262 6.0 12.0 0.01 0.01 0.01 91 1012.4
20260831011502 65 251 4.0 11.0 0.01 0.01 0.01 91 1012.4
20260831010104 65 250 6.0 12.0 0.00 0.00 0.00 91 1012.4
20260831004502 65 250 4.0 9.0 0.00 0.00 0.00 90 1012.5
20260831003100 66 265 3.0 11.0 0.00 0.00 0.00 89 1012.5
20260831001559 66 278 3.0 8.0 0.00 0.00 0.00 89 1012.5
20260831000103 66 243 6.0 12.0 0.00 0.00 0.00 89 1012.6
20260830234606 66 283 5.0 12.0 0.00 0.00 0.00 89 1012.5
20260830233103 66 255 6.0 14.0 0.00 0.00 0.00 89 1012.7
20260830231555 67 245 8.0 17.0 0.00 0.00 0.00 90 1012.8
20260830230054 67 269 10.0 18.0 0.00 0.00 0.00 89 1013.0
20260830224554 68 270 8.0 17.0 0.00 0.00 0.00 87 1013.0
20260830223053 68 253 7.0 17.0 0.00 0.00 0.00 87 1012.8
20260830221555 68 247 6.0 13.0 0.00 0.00 0.00 86 1012.8
20260830214552 69 245 7.0 15.0 0.00 0.00 0.00 85 1012.9
20260830213052 69 229 7.0 15.0 0.00 0.00 0.00 85 1012.9
20260830211553 69 257 5.0 16.0 0.00 0.00 0.00 86 1012.7
20260830210050 69 226 5.0 11.0 0.00 0.00 0.00 86 1012.9
20260830204557 70 264 7.0 16.0 0.00 0.00 0.00 85 1012.9
20260830203049 70 264 7.0 14.0 0.00 0.00 0.00 85 1013.0
20260830201557 69 259 7.0 15.0 0.00 0.00 0.00 85 1013.0
20260830200048 69 224 10.0 17.0 0.00 0.00 0.00 85 1013.3
20260830194549 70 229 9.0 19.0 0.00 0.00 0.00 85 1013.4
20260830193043 72 233 10.0 20.0 0.00 0.00 0.00 82 1013.4
20260830191615 71 238 8.0 22.0 0.00 0.00 0.00 83 1013.3
20260830190054 72 240 10.0 20.0 0.00 0.00 0.00 82 1013.6
20260830184540 72 261 9.0 19.0 0.00 0.00 0.00 81 1013.7
20260830183038 72 237 12.0 18.0 0.00 0.00 0.00 81 1013.8
20260830181537 72 275 10.0 16.0 0.00 0.00 0.00 79 1014.0
20260830180039 72 206 11.0 18.0 0.00 0.00 0.00 79 1014.2
20260830174536 72 250 10.0 20.0 0.00 0.00 0.00 79 1014.4
20260830173036 72 274 11.0 20.0 0.00 0.00 0.00 74 1014.5
20260830171532 73 232 9.0 17.0 0.00 0.00 0.00 75 1014.6
20260830170030 72 283 7.0 16.0 0.00 0.00 0.00 74 1014.7
20260830164528 72 337 9.0 18.0 0.00 0.00 0.00 73 1014.9
20260830163036 72 222 9.0 14.0 0.00 0.00 0.00 75 1015.1
20260830161523 72 240 7.0 12.0 0.00 0.00 0.00 77 1015.3
20260830160030 72 255 7.0 13.0 0.00 0.00 0.00 73 1015.3
20260830154523 71 247 7.0 14.0 0.00 0.00 0.00 76 1015.8
20260830153016 70 219 7.0 14.0 0.00 0.00 0.00 77 1016.2
20260830151514 70 305 7.0 12.0 0.00 0.00 0.00 78 1016.3
20260830150019 70 266 5.0 12.0 0.00 0.00 0.00 78 1016.6
20260830144519 69 250 6.0 11.0 0.00 0.00 0.00 77 1016.9
20260830143006 69 270 5.0 11.0 0.00 0.00 0.00 77 1017.1
20260830141505 69 250 4.0 10.0 0.00 0.00 0.00 78 1017.0
20260830140001 68 251 6.0 12.0 0.00 0.00 0.00 79 1017.1
20260830134559 68 290 5.0 14.0 0.00 0.00 0.00 81 1017.3
20260830133105 67 246 6.0 12.0 0.00 0.00 0.00 79 1017.4
20260830131558 67 268 5.0 12.0 0.00 0.00 0.00 79 1017.4
20260830130106 68 256 4.0 9.0 0.00 0.00 0.00 80 1017.4
20260830124554 67 266 3.0 11.0 0.00 0.00 0.00 81 1017.5
20260830123054 67 219 4.0 9.0 0.00 0.00 0.00 80 1017.6
20260830121549 65 266 3.0 8.0 0.00 0.00 0.00 82 1017.7
20260830120101 64 291 4.0 8.0 0.00 0.00 0.00 83 1017.9
20260830114541 63 262 3.0 8.0 0.00 0.00 0.00 86 1018.1
20260830113039 62 250 3.0 8.0 0.00 0.00 0.00 87 1018.1
20260830111541 61 273 2.0 5.0 0.00 0.00 0.00 87 1018.2
20260830110039 62 260 4.0 8.0 0.00 0.00 0.00 85 1018.2
20260830104535 61 253 1.0 5.0 0.00 0.00 0.00 87 1018.4
20260830103032 59 313 1.0 3.0 0.00 0.00 0.00 88 1018.3
20260830101529 58 278 1.0 4.0 0.00 0.00 0.00 88 1018.4
20260830100031 57 321 0.0 3.0 0.00 0.00 0.00 88 1018.4
20260830094536 57 327 0.0 3.0 0.00 0.00 0.00 87 1018.4
20260830093033 57 215 0.0 5.0 0.00 0.00 0.00 87 1018.3
20260830091527 56 262 1.0 5.0 0.00 0.00 0.00 89 1018.3
20260830090025 56 262 1.0 4.0 0.00 0.00 0.00 89 1018.3
20260830084523 56 261 1.0 4.0 0.00 0.00 0.00 88 1018.3
20260830083028 57 276 2.0 5.0 0.00 0.00 0.00 87 1018.2
20260830081532 56 252 0.0 4.0 0.00 0.00 0.00 88 1018.3
20260830080019 56 247 2.0 5.0 0.00 0.00 0.00 87 1018.2
20260830074524 57 265 1.0 5.0 0.00 0.03 0.00 87 1018.1
20260830073017 56 256 2.0 4.0 0.00 0.03 0.00 88 1018.1
20260830071516 57 307 1.0 4.0 0.00 0.03 0.00 88 1018.2
20260830070016 57 274 1.0 3.0 0.00 0.03 0.00 88 1018.0
20260830064514 57 255 1.0 4.0 0.00 0.09 0.00 88 1018.2
20260830063012 57 280 1.0 4.0 0.00 0.09 0.00 87 1018.3
20260830061514 57 271 2.0 4.0 0.00 0.09 0.00 86 1018.2
20260830060022 57 281 1.0 4.0 0.00 0.09 0.00 86 1018.3
20260830054507 58 286 1.0 4.0 0.00 0.09 0.00 86 1018.5